| time (UTC) | temp F | wind direction | speed MPH | gust MPH | rain 1hr in | rain 24hr in | rain mn in | humidity % | barometer mb |
| 20260502205305 | 73 | 149 | 4.0 | 8.0 | 0.00 | 0.00 | 0.00 | 14 | 1015.7 |
| 20260502204804 | 72 | 158 | 1.0 | 5.0 | 0.00 | 0.00 | 0.00 | 14 | 1015.7 |
| 20260502204304 | 72 | 126 | 4.0 | 7.0 | 0.00 | 0.00 | 0.00 | 15 | 1015.7 |
| 20260502203804 | 72 | 165 | 3.0 | 8.0 | 0.00 | 0.00 | 0.00 | 14 | 1016.0 |
| 20260502203304 | 72 | 85 | 4.0 | 7.0 | 0.00 | 0.00 | 0.00 | 15 | 1016.0 |
| 20260502202305 | 72 | 127 | 3.0 | 7.0 | 0.00 | 0.00 | 0.00 | 14 | 1016.5 |
| 20260502201805 | 72 | 165 | 5.0 | 8.0 | 0.00 | 0.00 | 0.00 | 14 | 1016.5 |
| 20260502201304 | 71 | 102 | 1.0 | 6.0 | 0.00 | 0.00 | 0.00 | 15 | 1016.5 |
| 20260502200304 | 71 | 308 | 1.0 | 6.0 | 0.00 | 0.00 | 0.00 | 14 | 1016.5 |
| 20260502195805 | 71 | 155 | 5.0 | 9.0 | 0.00 | 0.00 | 0.00 | 14 | 1016.5 |
| 20260502195305 | 70 | 237 | 4.0 | 10.0 | 0.00 | 0.00 | 0.00 | 16 | 1016.4 |
| 20260502194804 | 71 | 180 | 5.0 | 10.0 | 0.00 | 0.00 | 0.00 | 18 | 1016.4 |
| 20260502194305 | 70 | 110 | 2.0 | 7.0 | 0.00 | 0.00 | 0.00 | 16 | 1016.5 |
| 20260502193305 | 71 | 116 | 4.0 | 9.0 | 0.00 | 0.00 | 0.00 | 17 | 1016.5 |
| 20260502192804 | 71 | 108 | 2.0 | 5.0 | 0.00 | 0.00 | 0.00 | 16 | 1016.7 |
| 20260502192305 | 70 | 214 | 3.0 | 7.0 | 0.00 | 0.00 | 0.00 | 15 | 1016.7 |
| 20260502191804 | 70 | 171 | 2.0 | 7.0 | 0.00 | 0.00 | 0.00 | 19 | 1016.8 |
| 20260502191305 | 70 | 180 | 2.0 | 5.0 | 0.00 | 0.00 | 0.00 | 18 | 1017.2 |
| 20260502190304 | 69 | 184 | 5.0 | 8.0 | 0.00 | 0.00 | 0.00 | 19 | 1017.2 |
| 20260502185804 | 69 | 186 | 3.0 | 8.0 | 0.00 | 0.00 | 0.00 | 19 | 1017.2 |
| 20260502185305 | 69 | 183 | 3.0 | 6.0 | 0.00 | 0.00 | 0.00 | 19 | 1017.2 |
| 20260502184305 | 68 | 203 | 1.0 | 3.0 | 0.00 | 0.00 | 0.00 | 21 | 1017.5 |
| 20260502183304 | 67 | 207 | 2.0 | 7.0 | 0.00 | 0.00 | 0.00 | 22 | 1017.6 |
| 20260502182305 | 67 | 183 | 4.0 | 7.0 | 0.00 | 0.00 | 0.00 | 22 | 1017.6 |
| 20260502181804 | 66 | 156 | 3.0 | 7.0 | 0.00 | 0.00 | 0.00 | 23 | 1017.8 |
| 20260502181304 | 66 | 182 | 3.0 | 6.0 | 0.00 | 0.00 | 0.00 | 25 | 1017.8 |
| 20260502180804 | 66 | 171 | 5.0 | 7.0 | 0.00 | 0.00 | 0.00 | 28 | 1017.9 |
| 20260502180304 | 65 | 166 | 4.0 | 6.0 | 0.00 | 0.00 | 0.00 | 27 | 1018.0 |
| 20260502170305 | 62 | 137 | 3.0 | 8.0 | 0.00 | 0.00 | 0.00 | 32 | 1018.6 |
| 20260502164304 | 60 | 148 | 2.0 | 6.0 | 0.00 | 0.00 | 0.00 | 35 | 1018.6 |
| 20260502163804 | 59 | 141 | 3.0 | 6.0 | 0.00 | 0.00 | 0.00 | 35 | 1018.6 |
| 20260502163304 | 59 | 167 | 5.0 | 7.0 | 0.00 | 0.00 | 0.00 | 37 | 1018.8 |
| 20260502162805 | 59 | 154 | 3.0 | 7.0 | 0.00 | 0.00 | 0.00 | 39 | 1018.8 |
| 20260502162305 | 58 | 134 | 3.0 | 6.0 | 0.00 | 0.00 | 0.00 | 39 | 1018.5 |
| 20260502161804 | 58 | 182 | 5.0 | 7.0 | 0.00 | 0.00 | 0.00 | 38 | 1018.4 |
| 20260502161304 | 58 | 140 | 3.0 | 8.0 | 0.00 | 0.00 | 0.00 | 42 | 1018.4 |
| 20260502160804 | 58 | 171 | 5.0 | 8.0 | 0.00 | 0.00 | 0.00 | 42 | 1018.6 |
| 20260502152305 | 55 | 161 | 3.0 | 6.0 | 0.00 | 0.00 | 0.00 | 48 | 1018.6 |
| 20260502151305 | 54 | 129 | 3.0 | 7.0 | 0.00 | 0.00 | 0.00 | 48 | 1018.6 |
| 20260502150804 | 54 | 215 | 3.0 | 5.0 | 0.00 | 0.00 | 0.00 | 49 | 1018.6 |
| 20260502130304 | 42 | 238 | 0.0 | 2.0 | 0.00 | 0.00 | 0.00 | 62 | 1017.9 |
| 20260502123804 | 42 | 92 | 0.0 | 1.0 | 0.00 | 0.00 | 0.00 | 64 | 1017.9 |
| 20260502123304 | 42 | 92 | 0.0 | 0.0 | 0.00 | 0.00 | 0.00 | 63 | 1017.9 |
| 20260502122804 | 42 | 92 | 0.0 | 0.0 | 0.00 | 0.00 | 0.00 | 63 | 1017.9 |
| 20260502122306 | 42 | 92 | 0.0 | 0.0 | 0.00 | 0.00 | 0.00 | 63 | 1017.9 |
| 20260502121804 | 42 | 92 | 0.0 | 0.0 | 0.00 | 0.00 | 0.00 | 64 | 1017.8 |
| 20260502120304 | 42 | 92 | 0.0 | 0.0 | 0.00 | 0.00 | 0.00 | 62 | 1017.9 |
| 20260502115804 | 42 | 92 | 0.0 | 0.0 | 0.00 | 0.00 | 0.00 | 61 | 1017.8 |
| 20260502115306 | 42 | 92 | 0.0 | 1.0 | 0.00 | 0.00 | 0.00 | 60 | 1017.8 |
| 20260502114804 | 42 | 92 | 0.0 | 0.0 | 0.00 | 0.00 | 0.00 | 60 | 1017.8 |
| 20260502114304 | 42 | 92 | 0.0 | 2.0 | 0.00 | 0.00 | 0.00 | 60 | 1017.7 |
| 20260502113804 | 43 | 92 | 1.0 | 3.0 | 0.00 | 0.00 | 0.00 | 59 | 1017.7 |
| 20260502113304 | 43 | 92 | 0.0 | 0.0 | 0.00 | 0.00 | 0.00 | 58 | 1017.7 |
| 20260502112804 | 43 | 92 | 0.0 | 0.0 | 0.00 | 0.00 | 0.00 | 58 | 1017.7 |
| 20260502111804 | 44 | 92 | 0.0 | 0.0 | 0.00 | 0.00 | 0.00 | 57 | 1017.9 |
| 20260502111304 | 44 | 92 | 0.0 | 0.0 | 0.00 | 0.00 | 0.00 | 56 | 1017.9 |
| 20260502110304 | 44 | 92 | 0.0 | 0.0 | 0.00 | 0.00 | 0.00 | 55 | 1017.9 |
| 20260502105804 | 44 | 92 | 0.0 | 0.0 | 0.00 | 0.00 | 0.00 | 55 | 1017.9 |
| 20260502105306 | 45 | 92 | 0.0 | 0.0 | 0.00 | 0.00 | 0.00 | 53 | 1017.9 |
| 20260502104804 | 45 | 92 | 0.0 | 0.0 | 0.00 | 0.00 | 0.00 | 53 | 1017.7 |
| 20260502103804 | 45 | 92 | 0.0 | 0.0 | 0.00 | 0.00 | 0.00 | 51 | 1017.7 |
| 20260502103304 | 45 | 92 | 0.0 | 1.0 | 0.00 | 0.00 | 0.00 | 52 | 1017.7 |
| 20260502102804 | 45 | 92 | 2.0 | 3.0 | 0.00 | 0.00 | 0.00 | 52 | 1017.7 |
| 20260502102306 | 45 | 92 | 2.0 | 5.0 | 0.00 | 0.00 | 0.00 | 54 | 1017.7 |
| 20260502101803 | 45 | 113 | 1.0 | 3.0 | 0.00 | 0.00 | 0.00 | 53 | 1017.7 |
| 20260502101304 | 45 | 148 | 0.0 | 0.0 | 0.00 | 0.00 | 0.00 | 54 | 1017.7 |
| 20260502100804 | 45 | 148 | 0.0 | 0.0 | 0.00 | 0.00 | 0.00 | 54 | 1017.6 |
| 20260502100304 | 45 | 148 | 0.0 | 0.0 | 0.00 | 0.00 | 0.00 | 54 | 1017.6 |
| 20260502091304 | 47 | 331 | 0.0 | 0.0 | 0.00 | 0.00 | 0.00 | 50 | 1017.5 |
| 20260502090804 | 48 | 331 | 0.0 | 0.0 | 0.00 | 0.00 | 0.00 | 50 | 1017.5 |
| 20260502090304 | 48 | 355 | 0.0 | 0.0 | 0.00 | 0.00 | 0.00 | 48 | 1017.5 |
| 20260502071303 | 53 | 69 | 2.0 | 3.0 | 0.00 | 0.00 | 0.00 | 38 | 1017.3 |
| 20260502070804 | 53 | 32 | 0.0 | 2.0 | 0.00 | 0.00 | 0.00 | 38 | 1017.4 |
| 20260502070304 | 53 | 32 | 1.0 | 2.0 | 0.00 | 0.00 | 0.00 | 39 | 1017.4 |
| 20260502065804 | 53 | 32 | 0.0 | 0.0 | 0.00 | 0.00 | 0.00 | 40 | 1017.4 |
| 20260502065306 | 53 | 32 | 0.0 | 0.0 | 0.00 | 0.00 | 0.00 | 39 | 1017.4 |
| 20260502064804 | 53 | 32 | 0.0 | 0.0 | 0.00 | 0.00 | 0.00 | 39 | 1017.4 |
| 20260502064304 | 54 | 32 | 1.0 | 2.0 | 0.00 | 0.00 | 0.00 | 37 | 1017.4 |
| 20260502063804 | 54 | 340 | 1.0 | 2.0 | 0.00 | 0.00 | 0.00 | 38 | 1017.2 |
| 20260502063304 | 54 | 340 | 1.0 | 2.0 | 0.00 | 0.00 | 0.00 | 37 | 1017.2 |
| 20260502062804 | 54 | 325 | 2.0 | 3.0 | 0.00 | 0.00 | 0.00 | 37 | 1017.1 |
| 20260502062306 | 54 | 325 | 0.0 | 0.0 | 0.00 | 0.00 | 0.00 | 37 | 1017.1 |
| 20260502061804 | 55 | 317 | 0.0 | 2.0 | 0.00 | 0.00 | 0.00 | 36 | 1017.1 |
| 20260502061303 | 55 | 318 | 2.0 | 3.0 | 0.00 | 0.00 | 0.00 | 35 | 1017.1 |
| 20260502060804 | 55 | 306 | 3.0 | 3.0 | 0.00 | 0.00 | 0.00 | 36 | 1017.1 |
| 20260502060304 | 55 | 147 | 2.0 | 3.0 | 0.00 | 0.00 | 0.00 | 35 | 1017.0 |
| 20260502055306 | 55 | 344 | 0.0 | 1.0 | 0.00 | 0.00 | 0.00 | 35 | 1016.9 |
| 20260502054804 | 55 | 344 | 2.0 | 3.0 | 0.00 | 0.00 | 0.00 | 35 | 1016.8 |
| 20260502054304 | 55 | 59 | 2.0 | 5.0 | 0.00 | 0.00 | 0.00 | 36 | 1016.8 |
| 20260502053804 | 55 | 69 | 3.0 | 5.0 | 0.00 | 0.00 | 0.00 | 37 | 1016.8 |
| 20260502053304 | 55 | 351 | 4.0 | 7.0 | 0.00 | 0.00 | 0.00 | 37 | 1016.6 |
| 20260502052804 | 56 | 68 | 3.0 | 8.0 | 0.00 | 0.00 | 0.00 | 35 | 1016.6 |
| 20260502052306 | 56 | 26 | 5.0 | 8.0 | 0.00 | 0.00 | 0.00 | 33 | 1016.6 |
| 20260502051804 | 57 | 335 | 3.0 | 9.0 | 0.00 | 0.00 | 0.00 | 33 | 1016.4 |
| 20260502051304 | 57 | 341 | 5.0 | 9.0 | 0.00 | 0.00 | 0.00 | 32 | 1016.4 |
| 20260502050804 | 57 | 355 | 5.0 | 10.0 | 0.00 | 0.00 | 0.00 | 32 | 1016.3 |
| 20260502050303 | 57 | 356 | 6.0 | 9.0 | 0.00 | 0.00 | 0.00 | 32 | 1016.3 |
| 20260502045803 | 57 | 348 | 6.0 | 10.0 | 0.00 | 0.00 | 0.00 | 32 | 1016.3 |
| 20260502045306 | 57 | 338 | 6.0 | 10.0 | 0.00 | 0.00 | 0.00 | 32 | 1016.3 |
| 20260502044805 | 57 | 349 | 5.0 | 9.0 | 0.00 | 0.00 | 0.00 | 32 | 1016.3 |
| 20260502044305 | 57 | 352 | 8.0 | 12.0 | 0.00 | 0.00 | 0.00 | 31 | 1016.1 |
| 20260502043805 | 58 | 336 | 7.0 | 12.0 | 0.00 | 0.00 | 0.00 | 31 | 1016.1 |
| 20260502043306 | 58 | 2 | 6.0 | 12.0 | 0.00 | 0.00 | 0.00 | 31 | 1016.1 |
| 20260502042306 | 58 | 356 | 8.0 | 13.0 | 0.00 | 0.00 | 0.00 | 30 | 1016.0 |
| 20260502041805 | 58 | 346 | 10.0 | 15.0 | 0.00 | 0.00 | 0.00 | 30 | 1016.0 |
| 20260502041306 | 58 | 5 | 7.0 | 14.0 | 0.00 | 0.00 | 0.00 | 31 | 1016.0 |
| 20260502040306 | 58 | 340 | 7.0 | 12.0 | 0.00 | 0.00 | 0.00 | 31 | 1015.8 |
| 20260502035805 | 58 | 345 | 7.0 | 12.0 | 0.00 | 0.00 | 0.00 | 30 | 1015.8 |
| 20260502035306 | 58 | 330 | 7.0 | 12.0 | 0.00 | 0.00 | 0.00 | 30 | 1015.8 |
| 20260502034805 | 58 | 342 | 7.0 | 13.0 | 0.00 | 0.00 | 0.00 | 31 | 1015.7 |
| 20260502034305 | 59 | 305 | 9.0 | 12.0 | 0.00 | 0.00 | 0.00 | 31 | 1015.7 |
| 20260502033805 | 59 | 317 | 6.0 | 10.0 | 0.00 | 0.00 | 0.00 | 31 | 1015.6 |
| 20260502033305 | 60 | 314 | 6.0 | 9.0 | 0.00 | 0.00 | 0.00 | 29 | 1015.2 |
| 20260502031805 | 60 | 358 | 9.0 | 14.0 | 0.00 | 0.00 | 0.00 | 29 | 1015.2 |
| 20260502030805 | 60 | 351 | 8.0 | 13.0 | 0.00 | 0.00 | 0.00 | 30 | 1014.9 |
| 20260502030305 | 60 | 334 | 7.0 | 12.0 | 0.00 | 0.00 | 0.00 | 30 | 1014.9 |
| 20260502025805 | 60 | 350 | 7.0 | 12.0 | 0.00 | 0.00 | 0.00 | 29 | 1014.9 |
| 20260502025306 | 60 | 357 | 8.0 | 13.0 | 0.00 | 0.00 | 0.00 | 29 | 1014.9 |
| 20260502024806 | 61 | 354 | 9.0 | 12.0 | 0.00 | 0.00 | 0.00 | 29 | 1014.9 |
| 20260502024305 | 61 | 1 | 9.0 | 12.0 | 0.00 | 0.00 | 0.00 | 29 | 1014.9 |
| 20260502023805 | 61 | 350 | 8.0 | 14.0 | 0.00 | 0.00 | 0.00 | 30 | 1014.9 |
| 20260502023305 | 61 | 351 | 7.0 | 14.0 | 0.00 | 0.00 | 0.00 | 29 | 1014.8 |
| 20260502022306 | 61 | 354 | 7.0 | 12.0 | 0.00 | 0.00 | 0.00 | 29 | 1014.8 |
| 20260502021805 | 62 | 347 | 9.0 | 15.0 | 0.00 | 0.00 | 0.00 | 29 | 1014.8 |
| 20260502021305 | 62 | 349 | 6.0 | 9.0 | 0.00 | 0.00 | 0.00 | 29 | 1014.8 |
| 20260502020805 | 62 | 351 | 8.0 | 15.0 | 0.00 | 0.00 | 0.00 | 28 | 1014.8 |
| 20260502020305 | 63 | 328 | 6.0 | 13.0 | 0.00 | 0.00 | 0.00 | 28 | 1014.7 |
| 20260502015306 | 63 | 339 | 9.0 | 17.0 | 0.00 | 0.00 | 0.00 | 28 | 1014.6 |
| 20260502014805 | 63 | 337 | 10.0 | 16.0 | 0.00 | 0.00 | 0.00 | 28 | 1014.6 |
| 20260502014305 | 64 | 339 | 9.0 | 13.0 | 0.00 | 0.00 | 0.00 | 28 | 1014.7 |
| 20260502013805 | 64 | 327 | 8.0 | 15.0 | 0.00 | 0.00 | 0.00 | 28 | 1014.6 |
| 20260502012805 | 64 | 327 | 7.0 | 13.0 | 0.00 | 0.00 | 0.00 | 27 | 1014.5 |
| 20260502012306 | 64 | 334 | 7.0 | 12.0 | 0.00 | 0.00 | 0.00 | 27 | 1014.5 |
| 20260502011805 | 64 | 337 | 6.0 | 13.0 | 0.00 | 0.00 | 0.00 | 27 | 1014.5 |
| 20260502011305 | 64 | 337 | 9.0 | 15.0 | 0.00 | 0.00 | 0.00 | 27 | 1014.4 |
| 20260502010805 | 64 | 326 | 7.0 | 15.0 | 0.00 | 0.00 | 0.00 | 26 | 1014.6 |
| 20260502010305 | 65 | 318 | 10.0 | 17.0 | 0.00 | 0.00 | 0.00 | 26 | 1014.6 |
| 20260502005805 | 65 | 345 | 7.0 | 15.0 | 0.00 | 0.00 | 0.00 | 26 | 1014.6 |
| 20260502005306 | 65 | 346 | 10.0 | 14.0 | 0.00 | 0.00 | 0.00 | 26 | 1014.6 |
| 20260502004805 | 65 | 340 | 9.0 | 14.0 | 0.00 | 0.00 | 0.00 | 26 | 1014.6 |
| 20260502004305 | 65 | 316 | 10.0 | 17.0 | 0.00 | 0.00 | 0.00 | 26 | 1014.6 |
| 20260502003805 | 65 | 324 | 10.0 | 17.0 | 0.00 | 0.00 | 0.00 | 26 | 1014.6 |
| 20260502003305 | 65 | 353 | 11.0 | 15.0 | 0.00 | 0.00 | 0.00 | 26 | 1014.6 |
| 20260502002306 | 65 | 312 | 8.0 | 14.0 | 0.00 | 0.00 | 0.00 | 26 | 1014.6 |
| 20260502001805 | 65 | 9 | 9.0 | 15.0 | 0.00 | 0.00 | 0.00 | 26 | 1014.7 |
| 20260502001305 | 65 | 1 | 10.0 | 18.0 | 0.00 | 0.00 | 0.00 | 25 | 1014.7 |
| 20260502000805 | 65 | 349 | 8.0 | 16.0 | 0.00 | 0.00 | 0.00 | 26 | 1014.7 |
| 20260502000305 | 66 | 318 | 10.0 | 18.0 | 0.00 | 0.00 | 0.00 | 25 | 1014.8 |
| 20260501235805 | 66 | 338 | 9.0 | 16.0 | 0.00 | 0.00 | 0.00 | 25 | 1014.8 |
| 20260501235306 | 66 | 13 | 6.0 | 15.0 | 0.00 | 0.00 | 0.00 | 25 | 1014.8 |
| 20260501234805 | 66 | 332 | 9.0 | 15.0 | 0.00 | 0.00 | 0.00 | 25 | 1014.8 |
| 20260501234305 | 66 | 312 | 9.0 | 13.0 | 0.00 | 0.00 | 0.00 | 24 | 1014.7 |
| 20260501233805 | 66 | 340 | 11.0 | 18.0 | 0.00 | 0.00 | 0.00 | 24 | 1014.7 |
| 20260501233305 | 66 | 318 | 9.0 | 14.0 | 0.00 | 0.00 | 0.00 | 23 | 1014.7 |
| 20260501232805 | 66 | 338 | 8.0 | 14.0 | 0.00 | 0.00 | 0.00 | 23 | 1014.7 |
| 20260501232306 | 66 | 324 | 8.0 | 16.0 | 0.00 | 0.00 | 0.00 | 23 | 1014.7 |
| 20260501231305 | 66 | 324 | 10.0 | 15.0 | 0.00 | 0.00 | 0.00 | 22 | 1014.7 |
| 20260501230805 | 66 | 351 | 7.0 | 16.0 | 0.00 | 0.00 | 0.00 | 23 | 1014.7 |
| 20260501230305 | 66 | 345 | 9.0 | 17.0 | 0.00 | 0.00 | 0.00 | 22 | 1014.8 |
| 20260501225805 | 66 | 340 | 8.0 | 13.0 | 0.00 | 0.00 | 0.00 | 23 | 1014.9 |
| 20260501224805 | 66 | 8 | 7.0 | 17.0 | 0.00 | 0.00 | 0.00 | 24 | 1014.9 |
| 20260501224305 | 66 | 1 | 10.0 | 17.0 | 0.00 | 0.00 | 0.00 | 23 | 1015.0 |
| 20260501223805 | 66 | 26 | 9.0 | 16.0 | 0.00 | 0.00 | 0.00 | 23 | 1015.0 |
| 20260501223305 | 66 | 9 | 9.0 | 20.0 | 0.00 | 0.00 | 0.00 | 23 | 1015.1 |
| 20260501222805 | 66 | 337 | 7.0 | 14.0 | 0.00 | 0.00 | 0.00 | 23 | 1015.1 |
| 20260501221805 | 66 | 354 | 9.0 | 14.0 | 0.00 | 0.00 | 0.00 | 23 | 1015.3 |
| 20260501221305 | 66 | 305 | 6.0 | 12.0 | 0.00 | 0.00 | 0.00 | 23 | 1015.3 |
| 20260501220805 | 66 | 305 | 7.0 | 13.0 | 0.00 | 0.00 | 0.00 | 22 | 1015.4 |
| 20260501220305 | 66 | 296 | 7.0 | 12.0 | 0.00 | 0.00 | 0.00 | 24 | 1015.4 |
| 20260501215805 | 66 | 340 | 7.0 | 15.0 | 0.00 | 0.00 | 0.00 | 23 | 1015.4 |
| 20260501214805 | 67 | 284 | 3.0 | 9.0 | 0.00 | 0.00 | 0.00 | 23 | 1015.4 |
| 20260501214305 | 66 | 318 | 4.0 | 8.0 | 0.00 | 0.00 | 0.00 | 23 | 1015.6 |
| 20260501213805 | 67 | 51 | 5.0 | 9.0 | 0.00 | 0.00 | 0.00 | 23 | 1015.6 |
| 20260501213305 | 67 | 334 | 7.0 | 10.0 | 0.00 | 0.00 | 0.00 | 22 | 1015.7 |
| 20260501212306 | 66 | 261 | 8.0 | 10.0 | 0.00 | 0.00 | 0.00 | 22 | 1015.7 |
| 20260501211805 | 66 | 200 | 5.0 | 12.0 | 0.00 | 0.00 | 0.00 | 22 | 1015.7 |
| 20260501211305 | 66 | 292 | 3.0 | 7.0 | 0.00 | 0.00 | 0.00 | 23 | 1015.8 |
| 20260501210805 | 66 | 309 | 6.0 | 12.0 | 0.00 | 0.00 | 0.00 | 22 | 1015.9 |
| 20260501205805 | 66 | 261 | 2.0 | 8.0 | 0.00 | 0.00 | 0.00 | 22 | 1015.9 |